RH
100 100 100 100 99 87 100 100 100 100 100 100 100 100 100 100 100 100 99 100 100 100 100 100 100 100 94 79 77 96 100 100 100 93 87 79 68 71 92 98 96 85 91 100 82
100 100 100 100 100 100 100 100 100 100 100 100 100 100 100 100 94 100 98 98 100 99 100 100 100 100 100 98 77 99 100 100 95 100 100 100 100 90 78 100 98 86 84 79 76
100 100 100 100 100 96 100 100 100 100 100 100 100 100 100 100 94 97 87 87 88 90 94 100 100 100 100 100 100 100 100 100 100 100 100 100 100 97 100 100 85 78 76 89 77
99 95 100 100 96 100 100 100 100 100 100 100 100 98 100 100 100 98 100 99 85 93 100 100 100 100 100 100 100 99 100 100 100 100 100 100 100 94 78 99 67 48 69 85 80
100 100 97 100 99 80 90 97 100 100 95 78 89 87 79 75 80 100 94 97 100 100 100 100 100 100 100 100 97 73 85 80 83 81 75 66 68 76 100 87 73 89 76 75 80
100 100 100 100 100 100 100 97 70 84 97 100 97 70 66 73 68 60 53 62 62 66 69 76 100 99 94 87 73 90 91 92 92 94 94 94 92 93 98 91 95 96 96 82 85
100 100 100 100 100 100 100 100 100 90 93 93 100 100 100 100 96 89 82 93 75 46 46 62 64 61 64 72 76 79 83 84 99 94 83 86 97 97 83 79 76 73 69 63 67
98 100 100 100 100 100 100 100 100 100 100 100 100 98 100 100 100 100 100 100 100 86 64 54 56 69 86 94 78 72 90 100 100 95 89 87 90 85 84 95 94 83 99 100 100
67 65 97 100 100 100 95 92 99 98 100 100 100 100 100 100 100 100 100 100 100 100 98 87 82 69 82 89 86 92 77 94 100 100 100 100 100 93 98 97 89 91 89 84 91
75 62 87 100 100 100 99 96 82 81 83 87 96 100 100 100 100 100 100 100 100 100 100 100 96 95 100 100 100 100 100 100 100 100 100 100 100 100 100 100 100 97 100 95 90
83 76 89 100 100 94 87 87 74 70 77 78 74 68 78 95 100 99 98 100 100 100 100 100 100 100 100 100 100 100 100 100 99 97 97 100 100 100 100 100 100 100 98 88 90
89 99 83 90 85 83 74 69 65 58 72 68 70 69 62 56 95 100 96 98 100 100 100 100 100 100 100 100 100 100 100 100 100 100 93 84 82 81 78 74 71 69 76 94 83
84 94 99 87 80 79 64 70 64 48 51 52 52 56 76 64 72 96 97 91 97 100 100 100 98 97 99 100 100 100 100 100 100 100 97 91 92 89 76 66 63 65 64 62 63
71 87 100 87 76 72 53 58 76 97 51 41 48 47 50 73 76 98 76 92 94 93 87 88 100 100 100 100 100 93 86 87 80 73 69 66 60 43 42 38 39 32 31 41 40
56 81 100 80 73 90 98 46 56 80 92 38 41 44 54 73 70 88 100 88 96 72 61 59 67 81 83 79 70 72 71 70 65 54 37 32 27 25 23 20 20 19 20 23 26
45 66 75 77 84 74 56 60 57 71 84 51 45 59 69 83 94 89 100 100 100 99 80 63 53 53 59 56 62 62 64 61 55 47 42 36 28 26 27 25 21 24 26 26 23
33 40 69 100 53 57 70 50 75 88 52 43 45 50 82 79 92 77 52 65 80 79 93 100 61 58 58 59 54 58 52 50 58 77 56 38 29 26 26 26 26 25 26 28 30
46 43 39 76 99 92 82 62 65 57 72 49 48 54 56 77 93 100 96 98 94 91 93 96 93 86 96 88 93 83 79 58 61 53 48 39 29 26 26 26 24 24 24 26 25
61 75 43 39 61 94 100 99 85 49 99 100 100 72 90 100 95 84 87 69 83 95 88 68 77 85 69 60 72 69 63 76 46 44 44 35 28 30 28 26 24 24 27 28 28
70 100 80 62 85 99 100 100 100 100 100 100 100 68 75 81 74 79 84 48 51 71 94 94 90 88 82 64 58 71 70 50 54 48 39 33 33 29 26 26 27 26 28 32 39
88 100 94 57 88 100 100 100 100 100 100 100 100 98 86 100 100 100 100 100 93 90 93 72 58 60 67 70 58 56 56 56 48 46 36 31 33 32 30 35 41 39 41 38 36
90 62 56 100 95 72 98 93 99 96 100 100 100 100 100 100 100 98 80 99 69 73 76 78 72 68 57 40 34 29 40 52 49 47 50 46 40 41 48 44 46 49 47 43 40
57 79 61 86 84 68 76 95 100 100 85 98 86 98 100 100 100 70 77 71 81 81 79 66 43 60 58 63 68 93 83 67 66 65 54 46 41 55 56 49 52 55 45 46 53
41 44 48 69 70 52 59 85 95 100 92 82 89 96 100 85 71 81 77 60 56 66 72 49 48 59 74 80 83 97 100 98 84 83 81 74 97 89 85 84 65 66 72 77 83
40 41 36 32 33 37 54 64 69 72 76 88 95 94 95 99 77 51 51 52 62 62 53 52 60 63 61 60 56 55 54 46 46 57 69 81 70 80 82 84 86 85 83 99 100
33 31 33 36 34 36 41 42 42 42 43 48 52 67 62 50 48 56 59 63 64 61 62 54 56 64 75 62 50 49 52 64 70 67 66 69 55 77 86 93 94 100 100 99 94
33 31 33 36 40 41 43 47 47 49 51 58 65 65 54 63 69 65 77 92 84 77 81 70 67 65 57 49 49 46 61 76 76 80 82 79 87 85 92 93 100 100 97 90 92
Wind_Speed
67 65 67 66 64 63 61 56 56 56 53 53 50 49 47 47 47 47 48 48 45 47 47 48 49 48 48 48 47 44 44 46 46 45 47 50 47 46 42 40 40 40 36 37 43
76 73 67 66 64 64 62 59 60 60 59 56 55 53 52 52 48 50 51 50 51 49 45 42 50 48 47 48 46 45 49 50 48 46 47 48 48 47 48 48 47 45 44 45 45
74 75 73 69 69 69 67 67 64 65 64 61 59 64 55 54 52 54 54 53 54 50 49 48 44 47 46 45 41 43 47 48 49 50 53 56 55 54 51 57 55 55 53 52 55
82 80 78 81 70 71 70 71 68 67 68 70 67 60 50 57 55 51 54 55 53 54 53 51 51 48 48 47 43 43 44 43 46 47 49 51 51 52 55 60 62 59 57 57 58
86 85 82 80 81 78 75 76 75 74 73 73 72 71 68 67 66 59 61 62 59 54 56 55 54 52 48 51 47 49 54 56 55 56 56 55 58 55 59 65 61 58 57 57 58
84 84 82 85 85 85 81 80 80 78 77 72 72 71 71 75 75 70 71 69 69 69 65 58 57 57 55 59 56 54 56 58 59 60 60 60 58 59 62 61 59 60 59 58 58
85 85 86 83 84 84 84 84 82 86 81 79 73 70 70 81 78 79 75 76 76 72 74 72 69 64 63 65 65 67 63 63 63 65 69 68 64 67 66 66 66 70 67 65 63
89 89 87 86 85 85 85 85 85 84 79 76 77 78 74 82 80 81 80 81 78 76 77 75 76 72 70 69 70 69 67 66 70 74 76 75 72 71 72 69 69 67 65 64 63
89 87 88 85 85 83 81 80 82 84 85 83 83 84 82 85 81 81 82 81 79 76 74 75 75 75 72 76 75 73 74 75 74 76 77 77 74 75 75 76 77 76 77 75 74
90 90 87 91 90 84 81 82 83 84 83 83 87 88 88 87 87 81 79 79 78 79 78 78 76 76 77 74 71 74 76 81 80 78 78 76 75 74 75 75 75 77 75 75 75
94 89 88 89 89 86 85 83 84 84 87 88 89 91 90 87 82 82 77 77 76 77 77 79 77 78 85 81 82 82 82 83 86 84 79 79 80 78 78 81 80 80 81 82 81
101 99 96 96 94 92 92 88 89 89 89 90 89 89 90 92 82 79 80 78 75 78 77 75 73 79 79 78 80 80 82 82 82 83 83 84 82 83 87 87 87 85 84 85 87
104 103 102 102 100 97 94 93 92 93 92 86 88 83 85 87 83 82 80 79 79 78 78 78 79 81 81 83 84 87 87 88 87 90 89 88 86 92 93 93 93 93 92 92 91
106 107 105 107 108 96 96 95 97 95 97 85 88 83 83 85 77 80 84 83 85 84 87 82 86 87 90 90 91 89 92 93 94 93 96 99 97 100 102 102 101 97 97 98 97
108 107 105 111 108 106 97 101 100 99 105 92 87 85 85 88 84 82 89 86 88 90 92 90 90 91 92 93 94 90 93 95 96 96 95 98 98 96 97 104 105 105 100 95 93
111 108 105 108 105 104 95 100 104 108 108 94 91 90 88 91 91 88 91 92 92 96 92 91 91 92 93 95 94 94 95 96 95 96 95 99 101 95 91 92 94 91 87 83 84
109 109 110 108 105 101 101 104 112 115 102 101 96 94 98 99 98 96 95 95 95 98 97 97 97 95 96 96 97 98 98 97 96 98 98 96 96 92 90 87 84 84 80 80 79
116 115 114 112 111 109 108 110 117 109 111 105 100 103 100 101 100 99 101 100 100 99 99 99 98 102 102 100 103 102 102 101 102 101 99 98 97 96 89 85 85 84 83 82 83
121 126 123 116 114 113 117 121 120 108 106 112 111 107 104 101 103 104 105 102 102 103 103 100 103 107 107 106 109 107 105 108 108 104 100 97 97 94 91 91 90 88 85 84 84
128 132 129 121 119 121 125 125 121 113 113 122 115 112 111 107 109 107 107 104 104 105 107 109 109 111 111 111 112 111 113 112 109 105 99 92 94 94 93 91 89 87 85 84 83
137 138 132 126 127 129 133 125 118 114 118 120 119 118 111 112 112 113 111 110 112 114 114 113 113 116 116 116 117 116 114 113 107 98 94 92 92 92 91 88 87 88 86 88 89
143 139 135 133 137 130 126 133 119 122 122 122 122 118 115 118 118 121 115 115 111 113 114 116 116 117 116 113 107 106 99 94 91 87 91 90 91 88 86 88 89 90 92 91 91
144 144 138 140 138 134 132 129 126 123 124 125 121 123 121 123 129 122 116 113 117 117 112 106 103 94 93 89 88 87 90 90 88 88 91 94 92 91 89 90 92 94 96 97 98
127 132 135 138 136 131 132 133 128 130 127 126 125 128 129 126 124 122 125 120 117 112 108 100 96 94 91 91 92 93 93 96 94 95 95 93 95 94 96 95 97 98 97 98 102
128 127 125 124 121 112 115 120 120 122 123 123 125 127 129 133 123 109 106 103 91 91 98 101 101 101 97 94 92 94 95 94 96 98 97 99 96 97 103 102 102 102 103 105 108
131 128 119 117 113 114 112 111 107 108 107 105 104 103 106 106 105 107 105 105 105 102 101 104 106 103 103 102 98 98 97 97 99 100 102 105 97 99 101 106 107 109 113 113 113
130 126 122 120 118 118 115 110 109 107 109 108 107 109 108 107 107 109 108 109 110 109 109 110 111 113 111 112 108 105 101 105 107 106 105 104 103 106 106 109 111 113 116 117 117
Wind_Direction
240 244 242 242 242 243 244 246 244 244 246 250 253 255 254 256 259 261 261 266 267 265 269 270 271 272 272 271 272 270 270 271 270 275 277 277 278 278 276 273 268 268 272 278 285
237 239 244 244 243 240 240 241 241 246 250 250 256 252 253 254 256 257 260 264 265 264 262 267 271 273 273 272 275 275 269 269 269 271 276 276 278 279 276 274 273 276 274 279 283
235 239 242 246 245 246 243 247 247 245 244 246 256 253 254 255 257 258 263 263 263 267 268 276 275 277 272 270 269 270 274 277 278 277 275 279 280 281 282 279 277 280 283 281 284
234 234 237 240 239 241 243 246 244 245 245 244 245 244 255 260 258 266 266 266 266 266 268 273 274 270 272 277 270 267 270 276 280 281 280 279 277 278 280 277 284 287 285 287 291
240 238 238 239 239 239 241 243 244 245 245 248 248 251 252 252 249 253 256 260 260 265 271 271 270 274 272 273 269 274 271 271 271 273 274 275 279 284 280 281 286 286 285 286 291
238 239 242 243 242 241 242 244 245 245 248 251 254 254 256 258 259 256 261 262 265 264 264 258 261 265 271 270 268 269 274 275 273 271 274 275 276 278 279 284 285 284 286 286 287
240 240 240 241 241 241 244 242 246 246 248 248 251 256 257 258 259 258 263 264 268 266 266 267 268 266 268 271 271 274 274 274 272 278 281 278 278 277 281 283 283 284 287 287 288
242 242 243 242 245 242 243 243 245 243 246 249 252 250 254 259 261 261 261 264 266 264 266 267 267 268 266 268 269 273 272 271 276 280 281 279 276 277 280 280 278 279 283 283 281
245 244 245 246 244 244 246 249 247 247 247 250 253 253 254 257 258 260 261 263 263 262 263 265 264 264 263 265 266 267 270 273 276 277 278 278 277 277 279 281 283 284 285 284 284
244 246 245 245 245 246 248 250 251 250 250 252 252 253 251 254 258 259 259 260 261 263 261 262 262 264 261 257 262 266 268 270 272 272 275 277 278 278 279 278 278 281 284 285 287
241 244 243 244 245 248 249 250 252 252 250 251 252 255 256 257 260 261 261 258 256 259 260 262 262 260 259 263 266 268 268 270 270 271 270 273 273 276 277 279 281 282 282 284 286
241 243 244 245 246 247 248 251 251 250 249 250 251 253 257 254 257 258 261 262 261 261 259 261 261 264 265 267 268 268 269 270 271 271 271 271 276 281 278 278 279 280 281 282 282
240 241 244 247 247 247 248 249 250 250 251 250 253 251 256 255 255 255 258 261 263 267 268 268 268 269 270 272 273 274 273 274 275 275 275 274 275 277 278 281 282 283 282 282 283
240 242 245 246 246 247 249 249 250 252 252 246 253 251 256 256 254 258 258 260 262 265 266 267 268 268 271 274 273 274 275 277 279 279 280 281 282 285 284 282 282 284 284 282 281
239 242 245 247 247 248 249 249 252 253 254 248 252 254 255 260 258 258 261 261 265 265 267 269 270 272 271 274 275 278 280 280 280 282 283 286 288 292 293 292 291 290 289 286 286
238 239 242 246 246 249 247 251 253 253 255 251 250 254 259 260 261 260 262 264 266 269 270 272 273 275 275 275 277 277 280 282 284 287 289 291 293 294 292 290 290 290 288 287 288
238 240 241 246 246 246 248 250 255 255 255 252 252 252 255 258 261 262 264 265 268 271 272 273 274 276 277 279 279 280 281 283 287 290 290 292 292 290 287 286 286 286 286 286 285
238 239 241 243 246 248 250 252 255 255 257 256 255 254 255 258 260 263 265 267 268 270 270 272 273 275 276 278 279 281 284 286 286 288 290 291 290 288 284 280 280 282 281 282 283
237 240 240 240 244 246 249 249 252 254 257 259 257 257 258 258 259 260 264 265 266 270 270 272 273 275 277 278 281 283 287 285 286 288 287 287 287 283 282 281 282 282 282 282 283
236 239 240 241 242 245 247 250 251 253 254 257 258 258 257 259 261 263 264 265 266 268 273 273 274 275 278 279 282 283 282 284 286 287 286 284 281 282 281 282 281 281 281 283 284
235 238 240 240 241 243 245 249 249 251 254 258 259 258 260 261 262 263 265 268 269 272 272 274 275 276 277 279 280 281 282 281 282 282 281 280 280 281 282 282 284 286 286 285 287
235 237 238 240 243 243 244 245 250 249 252 255 258 262 262 263 265 264 265 267 269 272 273 273 275 275 275 275 275 276 279 279 278 277 278 280 280 279 282 283 284 286 285 285 285
234 236 237 240 241 244 246 248 248 252 253 256 258 259 262 264 264 265 267 267 269 270 272 275 275 274 276 279 280 278 275 277 279 278 277 277 280 283 282 282 283 284 285 288 291
232 234 236 238 241 243 244 246 247 252 254 255 257 258 260 263 264 268 269 269 268 268 270 268 270 271 271 271 271 273 272 275 277 277 278 280 282 281 283 283 283 286 289 290 291
231 232 233 237 238 242 243 245 247 249 251 253 254 255 256 260 264 263 266 266 264 261 264 267 268 269 269 270 271 272 274 277 278 279 280 279 280 283 285 286 288 288 289 290 291
230 231 234 237 238 239 241 242 243 246 249 252 253 253 254 257 261 264 265 267 269 266 266 267 267 268 269 270 272 273 276 278 277 277 278 279 283 280 281 283 286 288 289 291 292
230 230 233 235 237 239 242 245 248 249 251 251 252 253 255 258 259 262 264 265 266 267 268 268 269 269 270 271 271 272 276 275 276 278 279 280 280 280 281 284 286 287 288 291 293